Mt. Clemens, MI

4:25 AM EDT on March 28, 2017 (GMT -0400)
Selfridge Angb

Weather History for KMTC - April, 2013

Change the Weather History Date:

Monday, April 1, 2013

  Actual Average Record
Temperature  
Mean Temperature 34 °F -  
Max Temperature 42 °F 51 °F 79 °F (1986)
Min Temperature 27 °F 33 °F 17 °F (1964)
Degree Days  
Heating Degree Days 30    
Moisture  
Dew Point 21 °F    
Average Humidity 60    
Maximum Humidity 82    
Minimum Humidity 35    
Precipitation  
Precipitation 0.00 in - - ()
Sea Level Pressure  
Sea Level Pressure 29.87 in    
Wind  
Wind Speed 12 mph (NW)    
Max Wind Speed 22 mph    
Max Gust Speed 33 mph    
Visibility 10 miles    
Events Rain , Snow    
Averages and records for this station are not official NWS values.
T = Trace of Precipitation, MM = Missing Value Source: NWS Daily Summary

Daily Weather History Graph

Daily Weather History Graph

Search for Another Location

Airport or City:

Trip Planner

Search our weather history database for the weather conditions in past years. The results will help you decide how hot, cold, wet, or windy it might be!

Date:

Astronomy

Apr. 01, 2013 Rise Set
Actual Time 7:13 AM EDT 7:57 PM EDT
Civil Twilight 6:44 AM EDT 8:26 PM EDT
Nautical Twilight 6:11 AM EDT 9:00 PM EDT
Astronomical Twilight 5:36 AM EDT 9:35 PM EDT
Moon 1:10 AM EDT (4/1) 10:53 AM EDT (4/1)
Length of Visible Light 13h 41m
Length of Day
12h 44m
Waning Gibbous, 67% of the Moon is Illuminated
Apr 1
Waning Gibbous
Apr 3
Last Quarter
Apr 10
New
Apr 18
First Quarter
Apr 25
Full

Hourly Weather History & Observations

Time (EDT) Temp. Windchill Dew Point Humidity Pressure Visibility Wind Dir Wind Speed Gust Speed Precip Events Conditions
12:39 AM 42.8 °F 38.6 °F 35.6 °F 76% 29.68 in 10.0 mi WNW 6.9 mph - N/A   Overcast
12:41 AM 42.8 °F 39.3 °F 35.6 °F 76% 29.67 in 10.0 mi West 5.8 mph - N/A   Overcast
12:46 AM 42.8 °F 39.3 °F 33.8 °F 70% 29.68 in 10.0 mi West 5.8 mph - N/A   Overcast
12:52 AM 42.8 °F 38.6 °F 33.8 °F 70% 29.68 in 10.0 mi WNW 6.9 mph - N/A   Overcast
12:55 AM 42.6 °F 37.2 °F 34.9 °F 74% 29.68 in 10.0 mi WNW 9.2 mph - 0.00 in   Overcast
1:08 AM 42.8 °F 35.8 °F 33.8 °F 70% 29.68 in 10.0 mi NW 13.8 mph 25.3 mph N/A   Overcast
1:55 AM 40.3 °F 30.4 °F 31.5 °F 71% 29.70 in 10.0 mi NW 21.9 mph 33.4 mph N/A   Overcast
2:03 AM 37.4 °F 26.9 °F 30.2 °F 75% 29.72 in 10.0 mi NNW 20.7 mph 33.4 mph N/A   Overcast
2:06 AM 35.6 °F 24.8 °F 30.2 °F 81% 29.72 in 10.0 mi NNW 19.6 mph 32.2 mph N/A   Overcast
2:07 AM 35.6 °F 25.5 °F 30.2 °F 81% 29.72 in 10.0 mi NNW 17.3 mph 32.2 mph N/A Rain Light Rain
2:19 AM 35.6 °F 27.5 °F 28.4 °F 75% 29.73 in 10.0 mi NNW 11.5 mph 24.2 mph N/A   Overcast
2:22 AM 35.6 °F 26.2 °F 28.4 °F 75% 29.73 in 10.0 mi NNW 15.0 mph 20.7 mph N/A Rain Light Rain
2:32 AM 35.6 °F 26.6 °F 30.2 °F 81% 29.73 in 10.0 mi NW 13.8 mph 23.0 mph N/A   Overcast
2:38 AM 35.6 °F 27.1 °F 30.2 °F 81% 29.73 in 10.0 mi NNW 12.7 mph - N/A Rain Light Rain
2:48 AM 35.6 °F 28.6 °F 30.2 °F 81% 29.74 in 10.0 mi NW 9.2 mph - N/A Rain Light Rain
2:55 AM 34.7 °F 25.9 °F 29.7 °F 82% 29.75 in 10.0 mi NW 12.7 mph - 0.00 in Snow Light Snow
3:11 AM 33.8 °F 25.8 °F 28.4 °F 81% 29.75 in 10.0 mi NNW 10.4 mph 20.7 mph N/A Snow Light Snow
3:30 AM 33.8 °F 26.4 °F 28.4 °F 81% 29.76 in 10.0 mi NW 9.2 mph - N/A Rain Light Rain
3:36 AM 33.8 °F 24.3 °F 28.4 °F 81% 29.77 in 10.0 mi NW 13.8 mph - N/A   Overcast
3:55 AM 33.4 °F 23.1 °F 26.4 °F 75% 29.77 in 10.0 mi NNW 16.1 mph 23.0 mph 0.00 in   Overcast
4:55 AM 32.2 °F 23.8 °F 22.3 °F 67% 29.81 in 10.0 mi NW 10.4 mph - N/A   Overcast
5:05 AM 32.0 °F 23.6 °F 23.0 °F 69% 29.81 in 10.0 mi NNW 10.4 mph - N/A   Overcast
5:09 AM 32.0 °F 22.5 °F 21.2 °F 64% 29.81 in 10.0 mi NNW 12.7 mph 19.6 mph N/A   Mostly Cloudy
5:55 AM 29.1 °F 17.9 °F 14.7 °F 55% 29.85 in 10.0 mi NW 15.0 mph 19.6 mph N/A   Clear
6:55 AM 27.7 °F 18.8 °F 14.7 °F 58% 29.88 in 7.0 mi NW 9.2 mph - N/A   Scattered Clouds
7:55 AM 28.4 °F 18.5 °F 14.0 °F 55% 29.91 in 10.0 mi WNW 11.5 mph - N/A   Clear
8:55 AM 30.4 °F 19.1 °F 12.7 °F 48% 29.93 in 10.0 mi WNW 16.1 mph 24.2 mph N/A   Clear
9:55 AM 32.2 °F 21.4 °F 13.3 °F 46% 29.94 in 10.0 mi WNW 16.1 mph 24.2 mph N/A   Scattered Clouds
10:55 AM 33.8 °F 22.8 °F 8.6 °F 35% 29.96 in 10.0 mi WNW 18.4 mph 24.2 mph N/A   Scattered Clouds
11:55 AM 36.0 °F 27.1 °F 11.7 °F 37% 29.98 in 10.0 mi NW 13.8 mph - N/A   Mostly Cloudy
12:55 PM 36.1 °F 27.7 °F 11.8 °F 37% 29.99 in 10.0 mi NW 12.7 mph 19.6 mph N/A   Mostly Cloudy
1:55 PM 36.3 °F 26.4 °F 11.1 °F 35% 29.99 in 10.0 mi WNW 17.3 mph 26.5 mph N/A   Mostly Cloudy
2:55 PM 35.1 °F 25.9 °F 11.1 °F 37% 30.00 in 10.0 mi WNW 13.8 mph 25.3 mph N/A   Mostly Cloudy
3:55 PM 35.6 °F 25.5 °F 10.8 °F 36% 30.01 in 10.0 mi West 17.3 mph 26.5 mph N/A   Mostly Cloudy
4:55 PM 35.2 °F 25.8 °F 10.2 °F 35% 30.01 in 10.0 mi WNW 15.0 mph 23.0 mph N/A   Mostly Cloudy
5:55 PM 34.7 °F 24.7 °F 10.4 °F 37% 30.02 in 10.0 mi WNW 16.1 mph 26.5 mph N/A   Mostly Cloudy
6:55 PM 33.4 °F 23.1 °F 9.5 °F 37% 30.04 in 10.0 mi NW 16.1 mph 21.9 mph N/A   Scattered Clouds
7:55 PM 31.3 °F 20.3 °F 12.7 °F 46% 30.06 in 10.0 mi NW 16.1 mph - N/A   Partly Cloudy
8:30 PM 30.2 °F 18.1 °F 15.8 °F 55% 30.07 in 10.0 mi NW 18.4 mph 25.3 mph N/A Snow Light Snow
8:46 PM 30.2 °F 20.2 °F 14.0 °F 51% 30.07 in 10.0 mi WNW 12.7 mph - N/A   Mostly Cloudy
8:55 PM 29.8 °F 19.8 °F 13.6 °F 51% 30.08 in 10.0 mi WNW 12.7 mph - 0.00 in   Scattered Clouds
9:34 PM 30.2 °F 19.3 °F 10.4 °F 44% 30.09 in 10.0 mi NW 15.0 mph 19.6 mph N/A   Mostly Cloudy
9:43 PM 30.2 °F 21.3 °F 10.4 °F 44% 30.09 in 10.0 mi WNW 10.4 mph 23.0 mph N/A   Mostly Cloudy
9:55 PM 29.3 °F 20.2 °F 10.6 °F 46% 30.10 in 10.0 mi WNW 10.4 mph - 0.00 in   Scattered Clouds
10:55 PM 28.6 °F 19.3 °F 11.1 °F 48% 30.10 in 10.0 mi WNW 10.4 mph - N/A   Scattered Clouds
11:55 PM 27.5 °F 18.6 °F 13.8 °F 56% 30.10 in 10.0 mi WNW 9.2 mph - N/A   Partly Cloudy